Regional Weather Roundup
Issued by NWS

Home | Current Version | Previous Version | Graphics & Text | Print | Product List | Glossary Off
Versions: 1 2 3 4 5 6 7 8 9 10 11 12 13 14 15 16 17 18 19 20 21 22 23 24 25 26 27 28 29 30 31 32 33 34 35 36 37 38 39 40 41 42 43 44 45 46 47 48 49 50

864
ASUS43 KMKX 210420
RWRWI

WISCONSIN REGIONAL WEATHER ROUNDUP
NATIONAL WEATHER SERVICE MILWAUKEE/SULLIVAN WI
1000 PM CST SAT JAN 20 2018

NOTE: "FAIR" INDICATES FEW OR NO CLOUDS BELOW 12,000 FEET WITH NO
SIGNIFICANT WEATHER AND/OR OBSTRUCTIONS TO VISIBILITY.

WIZ001-002-006>008-014>016-023>028-210500-
NORTHWEST WISCONSIN

CITY           SKY/WX    TMP DP  RH WIND       PRES   REMARKS
SUPERIOR ARPT  FAIR      32  28  83 W5        29.90R WCI  27
ASHLAND        FAIR      30  28  92 SW7       29.91R WCI  23
HAYWARD        FOG       22  19  89 CALM      29.90R VSB 3/4
SIREN          FAIR      25  24  96 CALM      29.92R
CUMBERLAND     CLOUDY    32  30  93 SW3       29.91R
RICE LAKE      FAIR      32  31  96 CALM      29.93R
CHETEK         MOCLDY    28  28 100 CALM      29.92R
LADYSMITH      MOCLDY    32  30  92 CALM      29.92S
EAU CLAIRE     FAIR      29  28  96 CALM      29.92S FOG
MENOMONIE      FAIR      29  28  97 CALM      29.93R
NEW RICHMOND   CLOUDY    33  30  88 S3        29.93R
OSCEOLA        CLOUDY    32  32 100 CALM      29.96R
$$

WIZ003>005-009-010-017-018-210500-
NORTH CENTRAL WISCONSIN

CITY           SKY/WX    TMP DP  RH WIND       PRES   REMARKS
MANITOWISH WTR   N/A     20  20 100 CALM      29.89S FOG
ARBOR VITAE    FOG       27  26  96 CALM      29.89S VSB 1/2
WOODRUFF       FOG       27  26  96 CALM      29.89S VSB 1/2
RHINELANDER    FAIR      31  29  92 CALM      29.90S
EAGLE RIVER    FOG       24  24 100 CALM      29.89S VSB 1/4
LAND O LAKES   FOG       23  22  96 CALM      29.91S VSB<1/4
PHILLIPS       FAIR      30  29  98 CALM      29.89S
TOMAHAWK       FAIR      29  28  95 CALM      29.91S
MEDFORD        FAIR      29  28  94 S3        29.91R
MERRILL        FAIR      29  29 100 CALM      29.93R
$$

WIZ029-030-035-036-043>047-210500-
CENTRAL WISCONSIN

CITY           SKY/WX    TMP DP  RH WIND       PRES   REMARKS
WAUSAU         FAIR      30  28  92 CALM      29.91S
MOSINEE        CLEAR     34  30  86 CALM      29.93S
MARSHFIELD     FAIR      32  29  88 CALM      29.91S
STEVENS POINT  FAIR      27  27 100 CALM      29.94S
WAUPACA        FAIR      31  28  91 CALM      29.95R
WAUTOMA        FAIR      26  24  92 CALM      29.95S
WISC RAPIDS    FAIR      28  25  88 CALM      29.94S FOG
CAMP DOUGLAS   FAIR      27  27  99 CALM      29.92F
$$

WIZ011>013-019>022-031-037>040-048>050-210500-
NORTHEAST WISCONSIN

CITY           SKY/WX    TMP DP  RH WIND       PRES   REMARKS
ANTIGO         FAIR      27  26  96 CALM      29.91F
SHAWANO        FAIR      32  29  89 CALM      29.94S
OCONTO         FAIR      28  27  95 CALM      29.94S
STURGEON BAY   FAIR      33  29  85 CALM      29.96R
GREEN BAY      FAIR      31  29  92 CALM      29.95R FOG
MANITOWOC      FAIR      29  28  96 CALM      29.96R
APPLETON       MOCLDY    32  27  80 CALM      29.93R
CLINTONVILLE   FAIR      30  28  93 CALM      29.94S
OSHKOSH        FAIR      32  29  88 S5        29.94R WCI  27
$$

WIZ032>034-041-042-053>061-210500-
SOUTHWEST WISCONSIN

CITY           SKY/WX    TMP DP  RH WIND       PRES   REMARKS
LA CROSSE      FAIR      28  27  96 CALM      29.93F FOG
SPARTA         FAIR      27  26  96 CALM      29.94F
VIROQUA        FAIR      37  32  84 E3        29.91F
BOSCOBEL       FAIR      28  26  92 CALM      29.94F FOG
PRAIRIE DU CHI FAIR      32  29  89 S3        29.93F
PLATTEVILLE    FAIR      35  35 100 CALM      29.94F
$$

WIZ056-057-062-063-064-067-068-210500-
SOUTH CENTRAL WISCONSIN

CITY           SKY/WX    TMP DP  RH WIND       PRES   REMARKS
REEDSBURG      FAIR      29  29 100 CALM      29.93F
BARABOO/DELLS  FAIR      32  29  87 CALM      29.93F
LONE ROCK      FAIR      29  29 100 CALM      29.94F FOG
MINERAL POINT  FAIR      36  34  93 S5        29.93F WCI  32
MADISON        FAIR      30  28  92 CALM      29.96R
MIDDLETON      FAIR      32  31  96 CALM      29.95S
WATERTOWN      FAIR      27  27 100 CALM      29.96R
MONROE         FAIR      34  32  93 SW5       29.94F WCI  30
JANESVILLE     CLOUDY    36  36 100 SW3       29.96S
$$

WIZ051-052-058>065-066-070>072-210500-
SOUTHEAST WISCONSIN

CITY           SKY/WX    TMP DP  RH WIND       PRES   REMARKS
MILWAUKEE      FAIR      36  31  82 SW5       29.97R WCI  32
WAUKESHA       FAIR      32  30  93 CALM      29.97R
MILWAUKEE/TIMM FAIR      32  27  80 SW3       29.97R
RACINE         MOCLDY    37  33  85 SW8       29.99R WCI  31
BURLINGTON     MOCLDY    32  30  92 SW3       29.98R
KENOSHA        CLOUDY    37  33  85 SW6       29.98R WCI  32
FOND DU LAC    FAIR      32  28  85 S7        29.95R WCI  26
SHEBOYGAN      FAIR      29  28  96 W3        29.95R
WEST BEND      FAIR      30  28  93 CALM      29.96R
JUNEAU         FAIR      34  31  87 CALM      29.96R
$$

LSZ147-162-210500-
LAKE SUPERIOR

STATION/POSITION TIME  TEMP    WIND        PRES    WAVE
                       AIR SEA DIR/SP/G            HT/PER
                 (UTC) (F)     (DEG/KT/KT) (MB)    (FT/S)
DEVILS ISLAND    0400   34     230/  8/  8 1012.8R
SAXON HARBOR     0340   36     200/  5/ 10 1011.9R
$$

LMZ867-665-643>646-210500-
LAKE MICHIGAN

STATION/POSITION TIME  TEMP    WIND        PRES    WAVE
                       AIR SEA DIR/SP/G            HT/PER
                 (UTC) (F)     (DEG/KT/KT) (MB)    (FT/S)
NORTHPORT PIER   0400   31      CALM  /  4 1014.2
KEWAUNEE LAKESHO 0354   31        CALM     1013.6R
SHEBOYGAN LAKESH 0400   35     230/  3/  3 1014.8R
PORT WASHINGTON  0340   31     260/  2/  4 1015.6R
MILWAUKEE LAKESH 0350   38     220/  5/  6   N/A
KENOSHA   LAKESH 0400   39     240/  6/  9 1015.6
$$

TC  - TEMPERATURE IN CELSIUS
VSB - VISIBILITY IN STATUTE MILES
WCI - WIND CHILL INDEX
HX  - HEAT INDEX





USA.gov is the U.S. government's official web portal to all federal, state and local government web resources and services.